Location: Mascot Post Office (historical)
(40.2645°N, 99.5462°W)
Time: 02:17:54
(UTC+00:00)

Cosmos 1371 Rocket - Pass Details

Date: 14 July 2020
Orbit: 753 x 790 km, 74.0° (Epoch: 14 August)

Event Time Altitude Azimuth Distance (km) Brightness Sun altitude
Rises 03:53:49 0° 344° (NNW) 3,256 8.5 -16.5°
Reaches altitude 10° 03:56:14 10° 348° (NNW) 2,331 7.4 -16.8°
Maximum altitude 04:01:28 59° 68° (ENE) 899 4.2 -17.5°
Enters shadow 04:03:52 31° 135° (SE) 1,337 4.7 -17.8°
